Location: Chandrammap?lem
(16.9200°N, 81.0051°E)
Time: 07:46:09
(UTC+00:00)

CZ-3A R/B - Pass Details

Date: 11 August 2024
Orbit: 420 x 34799 km, 24.7° (Epoch: 06 September)

Event Time Altitude Azimuth Distance (km) Brightness Sun altitude
Rises 04:08:21 0° 224° (SW) 7,262 7.2 53.3°
Reaches altitude 10° 04:11:28 10° 220° (SW) 7,214 7.3 54.0°
Maximum altitude 08:07:31 88° 22° (NNE) 34,038 12.4 69.2°
Enters shadow 13:48:31 12° 103° (ESE) 5,740 6.3 -11.1°
